Tracking 18851 objects as of 24-Nov-2017
HD Live streaming from Space Station
objects crossing your sky now

SL-8 R/B

Track SL-8 R/B now!
10-day predictions


NORAD ID: 22591
Int'l Code: 1993-020B
Perigee: 962.6 km
Apogee: 997.8 km
Inclination: 82.9 °
Period: 104.5 minutes
Semi major axis: 7351 km
RCS: 6.0922 m2 (large)
Launch date: April 1, 1993
Source: Commonwealth of Independent States (former USSR) (CIS)
Launch site: PLESETSK MISSILE AND SPACE COMPLEX (PKMTR)

Note: This is a ROCKET BODY
aabbcc
Your satellite tracking list
Your tracking list is empty




NASA's NSSDC Master Catalog

Two Line Element Set (TLE):
1 22591U 93020B   17328.29567220 +.00000093 +00000-0 +78892-4 0  9997
2 22591 082.9283 280.6599 0023936 287.4390 179.8499 13.77404658238520
Source of the keplerian elements: AFSPC